Location: Newark
(34.3481°N, 134.0494°E)
Time: 15:02:45
(UTC+00:00)

Vanguard 3 - All Passes

Search period start: 27 January 2020 00:00
Search period end: 06 February 2020 00:00
Orbit: 507 x 3264 km, 33.4° (Epoch: 26 January)

Date Brightness Start Highest point End Pass type
(mag) Time Alt. Az. Time Alt. Az. Time Alt. Az.
27 Jan - 05:05:01 10° SSW 05:19:00 33° SE 05:35:15 10° E daylight
27 Jan - 07:15:45 10° SW 07:34:17 66° SSE 07:52:32 10° ENE daylight
27 Jan - 09:31:10 10° W 09:51:32 86° S 10:06:56 10° E visible
27 Jan - 11:49:11 10° W 12:08:05 79° SSW 12:19:39 10° ESE visible
27 Jan - 14:07:59 10° W 14:21:34 41° SW 14:29:46 10° SSE visible
28 Jan - 03:53:49 10° S 04:03:43 20° SE 04:15:22 10° E daylight
28 Jan - 06:01:08 10° SW 06:17:30 52° SSE 06:36:02 10° ENE daylight
28 Jan - 08:14:28 10° WSW 08:34:08 80° SSE 08:51:42 10° E daylight
28 Jan - 10:31:21 10° W 10:51:33 86° S 11:05:28 10° E visible
28 Jan - 12:49:45 10° WNW 13:06:53 60° SSW 13:17:06 10° SE visible
28 Jan - 15:09:54 10° W 15:18:34 20° SW 15:24:45 10° S visible
29 Jan - 04:47:50 10° SSW 05:01:30 37° SE 05:18:23 10° E daylight
29 Jan - 06:58:47 10° SW 07:16:47 70° SSE 07:35:46 10° E daylight
29 Jan - 09:14:02 10° W 09:34:19 87° S 09:50:37 10° E visible
29 Jan - 11:31:44 10° W 11:51:08 76° SSW 12:03:34 10° ESE visible
29 Jan - 13:50:38 10° W 14:04:43 38° SW 14:13:34 10° SSE visible
30 Jan - 03:36:17 10° S 03:46:21 22° SE 03:58:52 10° E daylight
30 Jan - 05:44:14 10° SW 05:59:58 56° SSE 06:19:03 10° ENE daylight
30 Jan - 07:57:31 10° WSW 08:16:44 83° SSE 08:35:06 10° E daylight
30 Jan - 10:14:05 10° W 10:34:26 85° S 10:49:15 10° ESE visible
30 Jan - 12:32:15 10° WNW 12:49:55 57° SSW 13:00:58 10° SE visible
30 Jan - 14:53:06 10° W 15:01:43 19° SW 15:08:06 10° S visible
31 Jan - 04:30:53 10° SSW 04:44:01 40° SE 05:01:20 10° E daylight
31 Jan - 06:42:00 10° WSW 06:59:18 73° SSE 07:18:53 10° E daylight
31 Jan - 08:57:01 10° W 09:17:01 87° S 09:34:12 10° E visible
31 Jan - 11:14:20 10° W 11:34:03 73° SSW 11:47:23 10° ESE visible
31 Jan - 13:33:17 10° W 13:47:44 35° SW 13:57:13 10° SSE visible
01 Feb - 03:19:06 10° S 03:29:02 25° SE 03:42:05 10° E daylight
01 Feb - 05:27:32 10° SW 05:42:31 60° SSE 06:01:56 10° ENE daylight
01 Feb - 07:40:44 10° WSW 07:59:21 85° S 08:18:24 10° E daylight
01 Feb - 09:56:54 10° W 10:17:13 83° SSW 10:32:56 10° ESE visible
01 Feb - 12:14:48 10° WNW 12:32:50 53° SSW 12:44:41 10° SE visible
01 Feb - 14:36:24 10° W 14:44:44 17° SW 14:51:12 10° SSW visible
02 Feb - 02:11:46 10° SE 02:14:49 11° SE 02:18:08 10° ESE daylight
02 Feb - 04:14:10 10° SSW 04:26:39 43° SE 04:44:07 10° ENE daylight
02 Feb - 06:25:22 10° WSW 06:41:54 76° SSE 07:01:54 10° E daylight
02 Feb - 08:40:07 10° W 08:59:42 87° S 09:17:41 10° E visible
02 Feb - 10:57:00 10° WNW 11:16:51 69° SSW 11:31:04 10° SE visible
02 Feb - 13:16:01 10° W 13:30:38 33° SW 13:40:43 10° SSE visible
03 Feb - 03:02:11 10° S 03:11:48 27° SE 03:25:05 10° E daylight
03 Feb - 05:11:00 10° SW 05:25:08 63° SSE 05:44:43 10° ENE daylight
03 Feb - 07:24:04 10° W 07:41:59 86° S 08:01:36 10° E daylight
03 Feb - 09:39:49 10° W 09:59:55 81° SSW 10:16:30 10° ESE visible
03 Feb - 11:57:25 10° WNW 12:15:36 50° SW 12:28:15 10° SE visible
03 Feb - 14:19:57 10° W 14:27:41 15° SW 14:33:58 10° SSW visible
04 Feb - 01:53:20 10° SSE 01:57:46 13° SE 02:02:56 10° ESE daylight
04 Feb - 03:57:38 10° SSW 04:09:22 47° SE 04:26:48 10° ENE daylight
04 Feb - 06:08:54 10° WSW 06:24:34 79° SSE 06:44:49 10° E daylight
04 Feb - 08:23:19 10° W 08:42:21 86° S 09:01:02 10° E visible
04 Feb - 10:39:46 10° WNW 10:59:31 66° SSW 11:14:37 10° SE visible
04 Feb - 12:58:50 10° W 13:13:24 30° SW 13:24:00 10° S visible
05 Feb - 02:45:29 10° S 02:54:39 29° SE 03:07:57 10° E daylight
05 Feb - 04:54:37 10° SW 05:07:53 67° SSE 05:27:22 10° ENE daylight
05 Feb - 07:07:32 10° W 07:24:40 87° S 07:44:42 10° E daylight
05 Feb - 09:22:51 10° W 09:42:32 78° SSW 09:59:57 10° ESE visible
05 Feb - 11:40:09 10° WNW 11:58:15 46° SW 12:11:40 10° SSE visible
05 Feb - 14:03:54 10° WSW 14:10:33 14° SW 14:16:14 10° SSW visible
